Home > Weather > Alexandroupoli > Past weeks

Flag for Greece Past Weather in Alexandroupoli, Greece — Yesterday and Last 2 Weeks

Now
79 °F

Sunny.


Feels Like: 80 °F
Forecast: 70 / 90 °F
Wind: 12 mph from Northeast

Location: Alexandroupoli Airport

Current Time: Jul 25, 2016 at 9:15:25 AM

Latest Report: Jul 25, 2016 at 8:20 AM


Visibility: 10 mi

Pressure: 29.92 "Hg

Humidity: 58%

Dew Point: 63 °F

Location of AlexandroupoliLocation

Past Weather in Alexandroupoli — Graph

°F

Alexandroupoli Temperature Yesterday

Maximum temperature yesterday: 97 °F (at 2:50 PM)
Minimum temperature yesterday: 66 °F (at 5:50 AM)
Average temperature yesterday: 84 °F

High & Low Weather Summary for the Past Weeks

 TemperatureHumidityPressure
High99 °F (Jul 15, 3:50 PM)89% (Jul 16, 11:50 PM)30.04 "Hg (Jul 16, 11:50 PM)
Low64 °F (Jul 21, 5:50 AM)20% (Jul 24, 1:50 PM)29.68 "Hg (Jul 15, 6:50 PM)
Average81 °F51%29.86 "Hg
* Reported Jul 10 7:20 AM — Jul 25 7:50 AM, Alexandroupoli, Weather by CustomWeather, © 2016

Note: Actual official high and low records may vary slightly from our data, if they occured in-between our weather recording intervals... More about our weather records

Advertising

Alexandroupoli Weather History for the Previous 24 Hours

Scroll right to see more
 ConditionsComfort  
Time TempWeatherWind HumidityBarometerVisibility
7:50 AM
Mon, Jul 25
77 °FSunny.6 mph61%29.92 "Hg10 mi
7:20 AM75 °FSunny.7 mph65%29.92 "Hg10 mi
6:50 AM75 °FClear.7 mph65%29.92 "Hg10 mi
6:20 AM73 °FClear.8 mph69%29.89 "Hg10 mi
5:50 AM73 °FClear.8 mph69%29.89 "Hg10 mi
5:20 AM73 °FClear.12 mph69%29.89 "Hg10 mi
4:50 AM73 °FClear.8 mph69%29.89 "Hg10 mi
4:20 AM73 °FClear.12 mph69%29.89 "Hg10 mi
11:50 PM
Sun, Jul 24
79 °FClear.7 mph51%29.89 "Hg10 mi
11:20 PM81 °FClear.6 mph48%29.89 "Hg10 mi
10:50 PM81 °FPassing clouds.5 mph48%29.89 "HgN/A
10:20 PM82 °FPassing clouds.5 mph45%29.89 "HgN/A
9:50 PM82 °FPassing clouds.5 mph45%29.89 "HgN/A
9:20 PM84 °FPassing clouds.No wind40%29.86 "HgN/A
8:50 PM86 °FPassing clouds.5 mph38%29.86 "HgN/A
8:20 PM84 °FPassing clouds.7 mph43%29.86 "HgN/A
7:50 PM86 °FPassing clouds.7 mph40%29.86 "HgN/A
7:20 PM88 °FPassing clouds.9 mph38%29.86 "HgN/A
6:50 PM90 °FPassing clouds.9 mph36%29.86 "HgN/A
6:20 PM88 °FPassing clouds.8 mph40%29.89 "HgN/A
5:50 PM90 °FPassing clouds.12 mph38%29.89 "HgN/A
5:20 PM90 °FPassing clouds.12 mph27%29.86 "HgN/A
4:50 PM95 °FPassing clouds.12 mph23%29.86 "HgN/A
4:20 PM95 °FPassing clouds.10 mph23%29.86 "HgN/A
3:50 PM97 °FPassing clouds.12 mph20%29.86 "HgN/A
3:20 PM97 °FSunny.14 mph20%29.89 "Hg10 mi
2:50 PM97 °FSunny.14 mph20%29.89 "Hg10 mi
2:20 PM95 °FSunny.16 mph20%29.89 "Hg10 mi
1:50 PM95 °FSunny.14 mph20%29.89 "Hg10 mi
1:20 PM93 °FSunny.13 mph23%29.89 "Hg10 mi
12:50 PM88 °FSunny.13 mph33%29.89 "Hg10 mi
12:20 PM88 °FSunny.12 mph33%29.89 "Hg10 mi
11:50 AM86 °FSunny.10 mph35%29.89 "Hg10 mi
11:20 AM86 °FSunny.9 mph33%29.92 "Hg10 mi
10:50 AM86 °FSunny.9 mph33%29.92 "Hg10 mi
10:20 AM84 °FSunny.9 mph33%29.92 "Hg10 mi
9:50 AM84 °FSunny.10 mph33%29.92 "Hg10 mi
9:20 AM82 °FSunny.9 mph35%29.92 "Hg10 mi
Weather by CustomWeather, © 2016

See weather overviewHow to use our weather pages